星链-4142 (STARLINK-4142 )

导读

STARLINK-4142是美国SpaceX公司星链(Starlink)星座中的一颗低轨互联网通信卫星,于2022年7月24日由猎鹰9号火箭发射升空。它属于星链批量生产的量产卫星,采用平板设计搭载氪工质霍尔推进器,运行在约550公里近地轨道,旨在为全球提供高速宽带互联网服务,设计使用寿命约5至7年,寿命末期会主动离轨再入大气层烧毁。

Basic Information
目录编号:
53255
目录名称:
STARLINK-4142
国际标识:
2022-086P
轨道中心:
EARTH
卫星名称:
星链-4142
卫星全名:
星链-4142 (STARLINK-4142 )
卫星状态:
在轨 (已飞行1503 天)
发射日期:
2022-07-24 UTC
国别 :
美国 (US)
星等 :
--
Orbit Information
数据来源 国际轨道数据
星历时间: 2026-09-04T13:05:28+0800
8小时前
查看轨道信息
半长轴: 6864.38km
偏心率: 0.0001562
轨道倾角: 53.160°
近地点辐角 74.933°
升交点赤经 110.089°
平近点角 285.184°
近地点: 485.17km
远地点: 487.316km
周期: 94.333分钟
每日圈数: 15.265143
Detailed Information
固有亮度:
5
最大亮度:
2.5
卫星平台:
Starlink v1.5
覆盖范围:
全球
运营商:
太空探索技术公司
运营商所在国:
美国
制造商(研发单位):
太空探索技术公司
制造商所在国:
美国
使用方式:
暂无
Satellite Introduction
星链(Starlink)计划是由太空探索技术公司(SpaceX)提出的一个巨型低轨卫星互联网星座项目,计划在2019年至2024年间在太空搭建由约1.2万颗卫星组成的“星链”网络,其中1584颗将部署在地球上空550千米处的近地轨道,并从2020年开始工作。该卫星仍在工作。
2D Orbit Map
3D Orbit Map
Orbit Altitude Analysis Chart
Orbit Inclination Analysis Chart
Orbit Comprehensive Analysis Chart
View Comprehensive Chart
Conjunction Data List
Event ID Objects TCA Miss Dist (km) Collision Risk Probability Collision Risk Index (CRI) Action
CDM_260905-230005-325506-728922
2026-09-05T
23:00:08+0000
0.955 km
远距离
3.044536E-5 中风险 0.65
CDM_260903-062404-383105-325524
2026-09-03T
06:24:21+0000
2.908 km
极远距离
1.384722E-6 低风险 0.38
CDM_260905-002805-325505-761722
2026-09-05T
00:28:37+0000
2.014 km
极远距离
1.314763E-6 低风险 0.37
CDM_260906-090505-325506-653322
2026-09-06T
09:05:58+0000
2.622 km
极远距离
1.285184E-6 低风险 0.37
CDM_260902-214905-325506-652521
2026-09-02T
21:49:36+0000
2.724 km
极远距离
1.201337E-6 低风险 0.37
CDM_260905-075805-325505-712022
2026-09-05T
07:58:05+0000
2.783 km
极远距离
1.161846E-6 低风险 0.36
CDM_260906-093105-325505-812321
2026-09-06T
09:31:00+0000
2.896 km
极远距离
1.000807E-6 低风险 0.35
CDM_260905-190205-325506-302321
2026-09-05T
19:02:56+0000
2.758 km
极远距离
9.053578E-7 极低风险 0.34
CDM_260906-025405-325505-561621
2026-09-06T
02:54:51+0000
2.545 km
极远距离
8.719758E-7 极低风险 0.34
CDM_260905-003205-325506-660421
2026-09-05T
00:32:03+0000
2.792 km
极远距离
5.187792E-7 极低风险 0.29